Regional Weather Roundup
Issued by NWS

Home | Current Version | Previous Version | Graphics & Text | Print | Product List | Glossary On
Versions: 1 2 3 4 5 6 7 8 9 10 11 12 13 14 15 16 17 18 19 20 21 22 23 24 25 26 27 28 29 30 31 32 33 34 35 36 37 38 39 40 41 42 43 44 45 46 47 48 49 50
000
ASUS45 KPSR 262000
RWRAZ

PRELIMINARY ARIZONA REGIONAL HOURLY WEATHER ROUNDUP
NATIONAL WEATHER SERVICE PHOENIX AZ
100 PM MST THU FEB 26 2015

NOTE: FAIR INDICATES FEW OR NO CLOUDS BELOW 12,000 FEET WITH NO
SIGNIFICANT WEATHER AND/OR OBSTRUCTIONS TO VISIBILITY.

AZZ001>003-036-262100-
NORTHWEST ARIZONA

CITY           SKY/WX    TMP DP  RH WIND       PRES   REMARKS
KINGMAN        PTSUNNY   64  20  18 SW15G22   29.89F
$$

AZZ004>008-015-016-018-262100-
NORTH CENTRAL ARIZONA

CITY           SKY/WX    TMP DP  RH WIND       PRES   REMARKS
GRAND CANYON   CLOUDY    45  23  42 SW18G25   29.92F
PRESCOTT       PTSUNNY   58  12  16 SW10      29.92F
FLAGSTAFF      NOT AVBL
PAYSON         MOSUNNY   55  16  21 SW8G15    29.96F
PAGE           CLOUDY    47  28  47 CALM      29.86F
$$

AZZ009>014-017-262100-
NORTHEAST ARIZONA

CITY           SKY/WX    TMP DP  RH WIND       PRES   REMARKS
WINSLOW        NOT AVBL
SAINT JOHNS    CLOUDY    50   2  14 VRB5      29.91F
WINDOW ROCK    CLOUDY    41  14  33 S7        29.95F
SHOW LOW       PTSUNNY   48   9  20 S16       29.94F
$$

AZZ023-262100-
GREATER PHOENIX AREA

CITY           SKY/WX    TMP DP  RH WIND       PRES   REMARKS
PHOENIX        MOSUNNY   73  27  18 CALM      29.85F
GLENDALE       MOSUNNY   72  30  21 NE5       29.88F
LUKE AFB       SUNNY     70  31  23 SE1       29.85F
DEER VALLEY    MOSUNNY   68  26  20 VRB3      29.86F
SCOTTSDALE     MOSUNNY   70  27  20 VRB3      29.88F
MESA-FALCON    PTSUNNY   70  28  21 W7        29.86F
MESA-GATEWAY   MOSUNNY   70  30  23 SW5       29.88F
CHANDLER       MOSUNNY   70  32  24 VRB6      29.86F
$$

AZZ027-028-262100-
SOUTHWEST MARICOPA COUNTY AND PINAL COUNTY

CITY           SKY/WX    TMP DP  RH WIND       PRES   REMARKS
CASA GRANDE    SUNNY     70  28  21 S5        29.86F
GILA BEND      SUNNY     75  21  13 E1        29.85F
$$

AZZ503-504-507>509-262100-
SOUTHEAST ARIZONA

CITY           SKY/WX    TMP DP  RH WIND       PRES   REMARKS
TUCSON         SUNNY     70  25  18 VRB5      29.88F
DAVIS-MONTHAN  SUNNY     70  26  19 SW6       29.86F
RYAN FIELD       N/A     70  30  23 SW6       29.89F
NOGALES        SUNNY     70  21  15 MISG      29.92F
SIERRA VISTA   MOSUNNY   64  21  19 VRB7      29.94F
SAFFORD        MOSUNNY   63  27  25 SE10      29.90F
$$

AZZ020-021-025-026-031-262100-
SOUTHWEST ARIZONA

CITY           SKY/WX    TMP DP  RH WIND       PRES   REMARKS
YUMA           MOSUNNY   77  27  15 SW6       29.83F
$$

CAZ031-033-041-043-047-048-061-262100-
SOUTHERN CALIFORNIA

CITY           SKY/WX    TMP DP  RH WIND       PRES   REMARKS
DOWNTOWN L.A.  PTSUNNY   66  49  54 CALM      29.91F
L.A. AIRPORT   PTSUNNY   63  53  70 W7        29.92F
SAN DIEGO      PTSUNNY   63  50  62 SW7       29.95F
BURBANK        PTSUNNY   64  42  44 S5        29.90F
ONTARIO        PTSUNNY   66  42  41 CALM      29.90F
RIVERSIDE      PTSUNNY   67  41  38 S5        29.90F
PALM SPRINGS   SUNNY     78  29  16 CALM      29.85F
EL CENTRO NAS  MOSUNNY   76  34  21 VRB3      29.83F
IMPERIAL       SUNNY     75  36  24 CALM      29.83F
BLYTHE         SUNNY     72  31  22 CALM      29.85F
$$

NVZ020-UTZ003-262100-
SOUTHERN NEVADA-UTAH

CITY           SKY/WX    TMP DP  RH WIND       PRES   REMARKS
LAS VEGAS      NOT AVBL
SALT LAKE CITY LGT RAIN  36  32  85 N5        29.96F WCI  32
$$

NMZ009-TXZ055-262100-
NEW MEXICO-WEST TEXAS

CITY           SKY/WX    TMP DP  RH WIND       PRES   REMARKS
ALBUQUERQUE    CLOUDY    41  23  48 E22       30.01F
EL PASO        MOSUNNY   54  32  43 E15G26    30.02F
$$


........................KEY........................
SKY/WX - SKY CONDITION/WEATHER
TMP    - TEMPERATURE IN FAHRENHEIT
DP     - DEW POINT IN FAHRENHEIT
RH     - RELATIVE HUMIDITY IN PERCENT
WIND   - DIRECTION AND SPEED IN MILES PER HOUR (MPH)
VRB    - VARIABLE WIND DIRECTION
PRES   - MEAN SEA LEVEL PRESSURE IN INCHES OF MERCURY
         F - FALLING PRESSURE   R - RISING PRESSURE
         S - STEADY PRESSURE
VSB    - VISIBILITY IN MILES
HX     - HEAT INDEX IN FAHRENHEIT
WCI    - WIND CHILL INDEX IN FAHRENHEIT
TC     - TEMPERATURE IN CELSIUS WHICH IS ALSO KNOWN AS
         TEMPERATURE IN CENTIGRADE
AFB    - AIR FORCE BASE
         LUKE AFB IS LUKE AIR FORCE BASE
         DAVIS-MONTHAN IS DAVIS-MONTHAN AIR FORCE BASE
NAS    - NAVAL AIR STATION
         EL CENTRO NAS IS EL CENTRO NAVAL AIR STATION
N/A    - NOT AVAILABLE



USA.gov is the U.S. government's official web portal to all federal, state and local government web resources and services.